Date,TemperatureHighF,TemperatureAvgF,TemperatureLowF,DewpointHighF,DewpointAvgF,DewpointLowF,HumidityHigh,HumidityAvg,HumidityLow,PressureMaxIn,PressureMinIn,WindSpeedMaxMPH,WindSpeedAvgMPH,GustSpeedMaxMPH,PrecipitationSumIn
2013-1-1,25.6,20.2,13.7,2.6,-9.2,-33.6,51,29,7,30.22,30.07,11,5,0,0.00
2013-1-2,24.9,20.7,15.8,11.0,2.9,-3.8,56,46,31,30.24,30.13,11,4,0,0.00
2013-1-3,23.6,20.0,16.0,10.7,7.5,1.9,69,58,53,30.21,30.17,11,6,0,0.00
2013-1-4,29.8,26.4,23.9,12.3,4.3,-4.0,60,39,23,30.23,30.02,22,11,0,0.00
2013-1-5,34.2,26.8,17.6,26.8,13.2,-1.1,99,60,22,30.33,30.04,15,6,0,0.00
2013-1-6,34.6,32.3,30.1,24.8,18.0,8.7,77,56,37,30.32,29.93,16,8,0,0.00
2013-1-7,36.3,30.4,26.6,15.7,4.9,-18.3,55,36,9,30.42,30.18,21,8,0,0.00
2013-1-8,37.1,30.4,26.4,18.0,8.7,-2.9,59,41,19,30.28,30.19,15,7,0,0.00
2013-1-9,44.6,37.6,30.0,20.6,4.2,-23.7,58,29,5,30.48,30.04,28,10,0,0.00
2013-1-10,41.3,32.2,21.6,26.2,12.2,-19.3,100,53,8,30.65,30.20,17,6,0,0.08
2013-1-11,54.2,43.3,33.1,49.1,35.5,18.9,100,77,38,30.20,29.82,20,9,0,1.57
2013-1-12,59.5,50.7,45.4,40.9,26.2,1.6,77,44,10,29.98,29.89,23,6,0,0.00
2013-1-13,46.0,35.5,26.5,36.3,31.2,6.1,100,86,19,30.09,29.87,14,4,0,0.87
2013-1-14,26.5,21.1,13.8,16.9,4.4,-15.7,100,51,21,30.50,30.09,16,4,0,0.00
2013-1-15,31.2,21.2,11.8,24.7,2.6,-27.5,100,57,7,30.52,30.22,10,1,0,0.00
2013-1-16,35.3,26.9,16.2,18.5,-0.4,-31.5,100,45,5,30.22,29.85,27,7,0,0.00
2013-1-17,32.2,26.2,15.2,21.4,-1.9,-29.8,70,32,8,30.39,29.99,24,8,0,0.00
2013-1-18,34.8,24.4,11.7,12.4,-6.0,-28.5,92,33,6,30.51,29.97,31,10,0,0.00
2013-1-19,45.3,40.6,34.0,15.1,0.2,-18.7,33,19,8,29.97,29.60,25,13,0,0.00
2013-1-20,42.6,19.4,12.4,13.6,-19.6,-33.7,31,17,5,30.25,29.59,28,10,0,0.00
2013-1-21,16.2,10.9,3.7,6.1,-14.9,-40.0,72,33,8,30.22,30.01,17,6,0,0.00
2013-1-22,8.6,2.7,-3.9,-4.1,-22.3,-44.4,66,33,8,30.38,30.25,17,5,0,0.00
2013-1-23,16.8,8.5,-0.1,5.2,-8.6,-32.8,73,48,12,30.39,30.13,16,5,0,0.00
2013-1-24,16.4,9.9,4.1,5.6,-10.7,-39.5,81,48,7,30.66,30.18,12,6,0,0.00
2013-1-25,21.5,16.3,10.9,13.6,2.9,-10.5,77,56,29,30.48,30.06,15,6,0,0.00
2013-1-26,26.2,20.5,16.1,12.9,1.0,-26.7,79,48,9,30.48,30.10,13,4,0,0.00
2013-1-27,27.7,19.9,9.4,12.0,-3.2,-25.6,88,46,9,30.54,30.36,15,6,0,0.00
2013-1-28,44.5,36.9,30.0,44.5,33.9,24.9,100,89,66,30.07,29.90,14,5,0,0.63
2013-1-29,57.9,45.6,32.2,54.8,42.5,25.3,100,90,56,30.07,29.52,22,8,0,1.18
2013-1-30,58.2,48.6,30.9,50.7,40.0,15.8,100,74,52,29.52,29.17,25,8,0,0.67
2013-1-31,30.5,19.7,14.0,13.2,1.3,-14.0,70,45,17,29.93,29.31,26,9,0,0.00
2013-2-1,18.3,13.0,7.9,5.4,-9.0,-30.1,72,41,10,30.32,29.93,20,8,0,0.00
2013-2-2,20.5,13.9,4.8,5.7,-1.2,-11.9,77,51,32,30.26,30.00,21,6,0,0.00
2013-2-3,19.2,10.8,-2.9,3.3,-6.3,-25.2,85,50,15,30.12,29.91,21,4,0,0.00
2013-2-4,22.6,16.6,11.4,9.1,0.6,-12.9,71,50,21,30.09,29.93,10,2,0,0.00
2013-2-5,25.8,19.5,6.3,23.8,7.1,-19.2,92,63,14,30.01,29.88,14,5,0,0.00
2013-2-6,33.0,23.0,10.0,16.0,-4.9,-33.8,99,38,5,30.35,30.00,14,4,0,0.00
2013-2-7,36.8,29.1,23.7,17.1,1.5,-9.4,65,31,14,30.32,29.94,19,8,0,0.00
2013-2-8,27.5,23.3,15.8,27.5,14.6,-3.0,100,72,29,30.42,29.90,22,10,0,0.00
2013-2-9,32.7,19.1,1.2,14.4,-3.2,-33.2,90,51,5,30.54,30.32,13,4,0,0.00
2013-2-10,38.2,29.5,19.5,30.8,7.5,-23.1,87,47,7,30.33,29.75,20,10,0,0.08
2013-2-11,43.6,36.3,30.5,40.0,15.8,-4.0,91,47,18,29.91,29.60,33,14,0,0.00
2013-2-12,30.6,28.4,26.1,9.7,6.1,1.7,45,38,30,30.08,29.91,15,6,0,0.00
2013-2-13,38.1,29.2,24.2,17.6,5.8,-23.2,65,41,7,29.98,29.79,12,4,0,0.00
2013-2-14,38.7,33.1,27.9,26.2,19.4,14.0,78,58,38,29.90,29.73,22,8,0,0.00
2013-2-15,30.6,24.8,20.7,17.0,-6.4,-30.9,57,28,7,30.17,29.90,17,6,0,0.00
2013-2-16,25.6,18.4,13.4,14.6,-0.7,-25.6,82,48,11,30.16,30.02,13,4,0,0.00
2013-2-17,21.6,13.6,6.0,9.4,-13.3,-38.6,76,36,6,30.28,30.12,14,5,0,0.00
2013-2-18,19.8,15.9,11.4,-2.9,-7.3,-15.3,42,34,24,30.27,30.12,13,7,0,0.00
2013-2-19,41.3,25.3,16.2,35.2,8.7,-11.1,80,50,27,29.96,29.45,33,13,0,0.00
2013-2-20,21.2,17.8,14.2,2.1,-8.4,-27.8,53,32,11,30.29,29.96,21,9,0,0.00
2013-2-21,18.2,17.1,15.5,3.8,0.7,-9.9,55,48,29,30.45,30.28,17,7,0,0.00
2013-2-22,32.7,28.7,25.2,32.2,23.6,10.7,100,82,52,29.99,29.92,18,8,0,0.00
2013-2-23,32.0,28.4,23.3,24.6,6.3,-16.6,74,41,12,29.97,29.91,15,8,0,0.00
2013-2-24,36.5,26.5,18.5,22.4,9.3,-18.4,90,54,9,30.22,29.94,17,5,0,0.00
2013-2-25,43.2,26.3,11.4,17.8,0.0,-30.1,96,48,5,30.29,30.15,10,3,0,0.00
2013-2-26,36.1,30.4,27.0,31.9,12.7,-6.3,100,53,17,30.19,29.61,18,8,0,0.00
2013-2-27,35.4,33.0,31.6,33.9,29.8,20.4,100,89,58,29.66,29.54,13,3,0,0.00
2013-2-28,32.8,30.7,27.2,32.1,22.3,10.8,100,73,43,30.02,29.62,21,7,0,0.04
2013-3-1,27.2,23.8,22.3,15.2,8.9,2.9,61,52,43,30.18,30.02,15,8,0,0.00
2013-3-2,24.7,22.2,20.4,13.6,7.3,0.9,73,53,37,30.15,30.10,13,6,0,0.00
2013-3-3,24.4,20.1,12.5,9.9,-1.8,-23.0,85,41,11,30.14,30.04,15,6,0,0.00
2013-3-4,32.9,21.0,10.7,11.0,-6.0,-36.5,94,40,5,30.23,30.11,10,2,0,0.00
2013-3-5,36.4,25.1,12.1,17.0,2.8,-24.8,93,46,7,30.21,29.91,16,7,0,0.00
2013-3-6,38.9,30.9,24.1,22.1,11.5,-18.7,71,48,8,30.26,29.94,14,6,0,0.00
2013-3-7,33.1,29.4,20.9,27.3,9.9,-20.3,89,50,9,30.47,30.24,14,3,0,0.00
2013-3-8,48.4,30.6,14.7,24.1,0.3,-31.2,100,42,4,30.56,30.44,7,2,0,0.00
2013-3-9,43.8,35.0,25.2,25.7,6.6,-18.1,92,38,7,30.47,30.06,18,7,0,0.00
2013-3-10,60.7,49.6,37.7,16.1,2.9,-16.7,37,17,4,30.07,29.85,23,8,0,0.00
2013-3-11,57.5,48.5,36.3,45.4,27.6,-13.7,92,53,5,29.88,29.53,23,10,0,0.00
2013-3-12,36.2,32.7,28.3,24.1,13.1,-5.6,68,46,17,29.95,29.74,21,9,0,0.00
2013-3-13,31.6,26.6,22.1,25.6,-1.1,-29.4,87,36,6,30.23,29.91,19,7,0,0.00
2013-3-14,38.4,28.7,19.8,7.9,-12.5,-32.2,58,20,5,30.31,30.12,19,5,0,0.00
2013-3-15,37.9,32.9,29.9,33.7,14.3,-26.2,100,53,7,30.12,29.91,14,5,0,0.00
2013-3-16,31.9,27.0,24.2,31.9,13.8,0.1,100,60,30,30.08,29.88,12,3,0,0.00
2013-3-17,31.9,23.9,18.1,15.5,-10.3,-34.9,80,28,6,30.33,30.06,13,6,0,0.00
2013-3-18,33.4,27.3,18.3,33.2,14.9,-3.7,100,62,34,30.27,29.63,23,10,0,0.04
2013-3-19,32.9,24.8,21.0,22.7,4.0,-26.8,67,41,9,29.98,29.66,25,11,0,0.00
2013-3-20,26.9,21.8,14.7,2.8,-8.1,-32.3,54,29,6,30.00,29.92,15,7,0,0.00
2013-3-21,29.2,22.1,13.7,12.3,4.9,-6.9,70,49,22,29.99,29.91,14,6,0,0.00
2013-3-22,36.9,27.8,23.2,10.7,-4.1,-27.4,48,27,6,30.08,29.96,19,7,0,0.00
2013-3-23,35.1,29.4,24.8,22.3,2.6,-22.5,73,36,8,30.15,30.06,9,3,0,0.00
2013-3-24,36.8,27.7,18.5,23.8,9.3,-25.9,100,56,6,30.13,29.75,18,6,0,0.00
2013-3-25,37.5,32.5,29.2,14.6,5.4,-15.0,45,32,10,29.97,29.68,18,9,0,0.00
2013-3-26,42.6,34.4,30.6,24.3,11.1,-13.4,68,40,10,30.15,29.96,15,6,0,0.00
2013-3-27,45.0,36.6,28.1,16.4,-1.2,-27.4,60,25,4,30.24,30.15,21,7,0,0.00
2013-3-28,50.0,38.1,29.6,12.0,-5.7,-26.7,47,20,4,30.31,30.23,16,6,0,0.00
2013-3-29,37.3,32.0,27.6,11.2,2.4,-15.6,48,30,10,30.35,30.31,6,2,0,0.00
2013-4-1,34.2,29.2,24.5,-3.9,-21.4,-31.3,28,11,6,30.15,30.02,22,9,0,0.00
2013-4-2,38.7,28.6,20.7,11.5,-12.5,-30.1,66,22,6,30.31,30.14,21,6,0,0.00
2013-4-3,39.6,29.9,21.9,2.8,-17.1,-31.1,42,14,6,30.46,30.30,18,6,0,0.00
2013-4-4,56.1,40.9,27.4,2.8,-15.1,-31.9,33,10,5,30.41,29.97,18,7,0,0.00
2013-4-5,45.7,38.4,31.0,19.3,-10.4,-27.4,58,17,5,30.26,29.97,16,6,0,0.00
2013-4-6,48.2,37.9,28.0,11.5,-11.8,-30.7,48,15,5,30.29,29.82,24,11,0,0.00
2013-4-7,56.2,46.4,32.2,25.9,8.9,-21.7,70,26,4,30.10,29.65,30,8,0,0.00
2013-4-8,61.2,42.5,30.1,44.9,26.8,4.7,100,58,15,30.11,29.76,21,8,0,0.00
2013-4-9,50.4,42.8,38.0,44.5,36.5,18.1,100,81,30,30.14,29.93,16,6,0,0.00
2013-4-10,45.4,38.6,35.6,43.2,36.0,27.0,100,91,59,30.11,29.89,15,6,0,0.00
2013-4-11,37.1,35.2,33.8,34.2,30.0,26.2,94,81,65,30.05,29.73,23,8,0,0.00
2013-4-12,41.2,36.5,32.8,34.1,27.9,9.8,100,74,28,29.84,29.62,17,5,0,0.04
2013-4-13,41.1,37.0,33.9,34.2,10.5,-18.3,84,37,8,30.03,29.83,23,9,0,0.00
2013-4-14,48.8,38.3,31.5,18.5,8.2,-29.0,57,31,4,30.15,29.97,20,6,0,0.00
2013-4-15,67.6,53.2,40.1,46.1,17.2,-0.2,66,28,7,29.98,29.91,23,10,0,0.00
2013-4-16,61.5,50.2,44.3,43.5,35.7,20.0,85,61,27,30.09,29.91,22,6,0,0.00
2013-4-17,60.8,45.9,36.9,37.9,6.9,-24.0,84,31,4,30.42,30.04,23,7,0,0.43
2013-4-18,76.1,58.0,43.3,57.7,39.3,23.1,86,55,14,30.03,29.59,40,12,0,0.04
2013-4-19,58.4,43.2,31.4,55.5,23.5,-12.5,95,53,10,29.83,29.39,33,12,0,1.02
2013-4-20,36.9,31.9,27.1,22.3,-7.4,-31.9,65,21,5,30.50,29.82,19,7,0,0.00
2013-4-21,48.8,35.6,22.4,32.8,-2.4,-26.5,100,38,5,30.68,30.50,17,6,0,0.00
2013-4-22,60.8,46.5,33.2,22.2,-3.9,-23.1,62,18,4,30.52,30.21,14,7,0,0.00
2013-4-23,68.0,55.0,44.0,49.1,8.3,-23.7,84,25,3,30.24,29.89,24,9,0,0.31
2013-4-24,50.5,37.6,32.3,45.6,26.1,-1.5,97,71,16,30.17,29.86,17,7,0,0.35
2013-4-25,49.5,40.8,35.1,26.4,0.8,-24.8,60,23,4,30.39,30.10,18,8,0,0.04
2013-4-26,58.7,46.3,29.5,31.0,-1.3,-24.8,97,23,4,30.49,30.35,19,6,0,0.00
2013-4-27,70.9,55.0,39.1,27.5,1.2,-22.3,60,18,3,30.40,30.15,15,6,0,0.00
2013-4-28,60.8,52.6,49.7,52.1,20.3,-17.3,100,46,5,30.16,29.90,18,6,0,0.08
2013-4-29,70.7,58.5,51.5,52.6,29.6,-18.6,100,53,3,29.98,29.90,12,3,0,0.04
2013-4-30,71.0,60.9,53.6,46.0,30.7,2.9,70,38,7,30.12,29.96,23,8,0,0.16
2013-5-1,80.3,68.0,55.5,40.4,13.9,-18.7,55,21,2,30.29,30.10,19,7,0,0.00
2013-5-2,77.6,66.0,56.2,30.8,6.4,-20.6,31,13,2,30.30,30.16,18,8,0,0.00
2013-5-3,74.1,65.8,56.8,7.0,-4.8,-18.5,12,6,3,30.19,30.10,21,8,0,0.00
2013-5-4,69.9,62.3,55.3,19.6,-1.4,-18.8,24,9,3,30.18,30.10,19,8,0,0.00
2013-5-5,70.7,60.8,51.3,19.1,-1.0,-18.2,27,10,3,30.16,30.06,17,7,0,0.00
2013-5-6,76.1,63.9,49.8,26.4,2.1,-16.2,31,11,3,30.11,30.01,15,5,0,0.00
2013-5-7,76.4,62.9,47.6,41.6,8.0,-22.2,71,18,2,30.12,30.03,18,4,0,0.00
2013-5-8,81.4,66.0,50.8,47.2,12.0,-14.3,84,21,3,30.09,29.97,9,3,0,0.00
2013-5-9,82.8,67.1,49.1,51.0,14.8,-21.9,100,28,2,30.03,29.92,11,3,0,0.00
2013-5-10,66.1,50.7,39.2,60.0,39.5,-11.4,100,74,4,29.95,29.84,14,6,0,0.43
2013-5-11,40.6,40.0,39.3,40.6,39.8,38.0,100,99,95,29.93,29.91,13,7,0,0.00
2013-5-12,48.5,39.1,33.9,22.5,-0.7,-23.1,56,22,5,30.15,29.91,23,9,0,0.00
2013-5-13,54.5,41.2,29.7,14.0,-6.9,-24.6,50,17,5,30.21,30.14,15,5,0,0.00
2013-5-14,76.3,54.3,41.8,22.6,-3.8,-20.3,29,10,3,30.15,29.79,18,7,0,0.00
2013-5-15,76.0,62.6,53.7,41.8,21.7,-19.7,51,26,2,29.83,29.64,16,8,0,0.00
2013-5-16,79.7,65.6,48.3,36.3,4.2,-16.8,56,13,3,30.09,29.88,14,4,0,0.00
2013-5-17,72.5,57.6,46.0,26.3,3.2,-20.4,44,16,3,30.19,30.09,10,4,0,0.00
2013-5-18,68.9,58.3,53.9,17.0,4.6,-19.0,23,13,3,30.21,30.16,12,4,0,0.00
2013-5-19,85.9,72.5,54.7,40.1,9.7,-15.2,35,12,2,30.08,29.92,11,4,0,0.00
2013-5-20,89.5,73.6,62.4,54.9,31.5,-11.4,75,31,2,29.99,29.84,23,7,0,0.00
2013-5-21,84.7,75.0,68.0,47.5,22.9,-15.0,46,20,3,29.90,29.80,21,6,0,0.00
2013-5-22,79.1,68.2,61.3,55.2,40.9,1.0,77,42,6,29.84,29.69,20,6,0,0.00
2013-5-23,61.3,49.8,41.0,56.5,43.8,27.9,96,80,59,30.21,29.75,19,7,0,0.00
2013-5-24,54.7,43.9,36.4,40.6,11.3,-19.7,94,36,5,30.41,30.20,14,5,0,0.00
2013-5-25,66.0,46.6,33.4,44.5,12.9,-22.6,100,51,4,30.45,30.35,13,3,0,0.00
2013-5-26,69.1,54.1,33.7,49.9,5.1,-16.5,100,31,4,30.40,30.27,12,3,0,0.00
2013-5-27,66.9,51.8,42.0,49.6,14.9,-20.0,100,34,3,30.32,30.05,14,6,0,0.00
2013-5-28,71.6,59.2,49.6,65.7,54.5,39.9,100,87,35,30.06,29.88,11,5,0,0.00
2013-5-29,82.5,72.4,64.0,66.6,37.4,7.0,92,36,6,30.04,29.84,19,6,0,0.00
2013-5-30,87.1,73.2,65.3,63.9,40.6,4.9,80,37,5,30.10,30.00,17,6,0,0.00
2013-5-31,82.5,73.1,67.4,60.5,41.2,18.8,78,35,10,30.05,29.91,21,8,0,0.00
2013-6-1,79.4,69.8,63.3,63.6,41.2,12.5,93,44,9,29.92,29.77,17,7,0,0.00
2013-6-2,68.7,61.5,50.0,53.2,29.9,12.1,67,32,13,30.05,29.72,19,8,0,0.00
2013-6-3,66.2,52.5,39.2,42.2,5.8,-22.8,100,27,3,30.13,30.04,12,5,0,0.00
2013-6-4,48.9,47.6,46.0,42.4,39.9,36.8,78,74,70,30.18,30.17,2,0,0,0.00
2013-6-5,51.6,49.8,48.2,32.5,18.8,-3.6,51,32,10,30.24,30.20,4,1,0,0.00
2013-6-6,64.6,58.3,54.2,32.6,18.1,0.8,36,22,9,30.04,29.92,11,5,0,0.00
2013-6-7,51.4,50.5,49.6,50.1,46.4,43.5,100,86,77,29.95,29.92,8,3,0,0.00
2013-6-8,54.9,54.3,53.2,46.6,40.8,37.6,77,60,52,30.00,29.96,2,0,0,0.00
2013-6-9,55.6,55.0,54.5,44.1,41.9,40.0,67,61,56,30.15,30.14,4,2,0,0.00
2013-6-10,72.8,64.4,57.4,63.9,53.7,28.3,100,74,21,29.99,29.81,9,3,0,0.20
2013-6-11,80.6,67.9,60.8,64.8,45.2,4.4,100,60,7,29.94,29.86,16,5,0,0.00
2013-6-12,75.1,67.1,60.5,66.7,45.8,25.2,100,55,18,29.98,29.88,14,2,0,0.00
2013-6-13,78.0,70.1,63.9,36.4,11.2,-12.2,36,12,3,29.98,29.81,18,8,0,16.00
2013-6-14,76.5,64.2,55.5,43.6,14.4,-22.6,55,22,2,30.13,29.97,12,5,0,0.00
2013-6-15,79.4,66.4,55.0,48.0,27.6,-9.7,65,31,3,30.13,29.96,16,4,0,0.00
2013-6-16,81.2,69.9,63.1,61.3,30.7,-16.8,92,34,2,29.96,29.84,18,7,0,0.00
2013-6-17,85.0,69.9,58.9,51.6,19.0,-20.3,74,22,2,29.99,29.90,15,4,0,0.00
2013-6-18,71.2,61.4,52.8,52.8,13.0,-18.0,90,30,3,30.15,29.96,16,6,0,0.00
2013-6-19,73.4,51.4,43.6,45.5,26.1,-15.5,92,48,4,30.23,30.14,8,1,0,0.00
2013-7-22,81.6,76.1,72.6,42.0,30.3,19.0,32,20,11,29.93,29.92,10,6,0,0.00
2013-7-23,81.6,68.7,59.4,64.2,41.6,14.2,84,44,11,29.94,29.75,15,6,0,0.00
2013-7-24,74.1,60.8,52.4,31.5,11.7,-17.7,44,19,3,30.08,29.94,12,5,0,0.00
2013-7-25,80.4,64.6,48.0,56.2,16.8,-16.7,100,35,3,30.16,30.10,9,2,0,0.00
2013-7-26,79.5,67.7,58.3,51.2,23.3,-11.1,63,26,3,30.16,29.95,12,4,0,0.00
2013-7-27,75.9,64.7,54.1,56.2,43.1,17.6,81,49,13,29.97,29.81,12,4,0,0.00
2013-7-28,65.1,56.0,49.3,46.4,33.8,13.1,87,47,14,30.02,29.90,16,5,0,0.00
2013-7-29,72.1,60.2,54.0,48.8,33.1,6.2,81,43,9,30.23,30.00,10,4,0,0.00
2013-7-30,79.8,65.3,49.9,63.3,25.6,-19.7,100,43,2,30.29,30.16,8,1,0,0.00
2013-7-31,70.4,64.3,61.2,66.2,54.2,16.7,98,72,19,30.18,29.99,10,2,0,0.00
2013-8-1,78.7,68.3,60.7,56.2,28.2,-19.9,82,28,2,29.97,29.93,14,4,0,0.35
2013-8-2,74.6,64.4,53.7,60.0,37.6,7.4,96,43,8,29.98,29.90,21,5,0,0.00
2013-8-3,77.0,66.8,56.6,63.6,24.0,-20.5,100,36,2,30.12,29.94,13,4,0,0.00
2013-8-4,73.5,61.7,53.7,45.3,24.1,-14.2,67,32,3,30.22,30.11,14,4,0,0.00
2013-8-5,75.5,61.9,53.3,48.9,25.3,-15.6,84,34,3,30.18,30.00,14,3,0,0.00
2013-8-6,77.4,67.8,61.4,63.6,43.7,19.1,88,47,12,30.02,29.92,11,4,0,0.00
2013-8-7,82.4,71.6,61.5,66.7,47.2,12.3,100,55,8,29.96,29.90,14,5,0,0.08
2013-8-8,78.6,68.2,61.4,66.5,30.3,-12.0,90,37,3,30.07,29.94,10,4,0,0.00
2013-8-9,80.4,66.6,55.1,63.5,27.8,-20.4,100,38,2,30.06,29.98,11,2,0,0.00
2013-8-10,79.7,67.2,56.0,62.0,23.5,-21.8,100,33,2,30.19,30.05,11,2,0,0.00
2013-8-11,76.9,67.1,60.4,53.9,27.5,-5.9,73,29,4,30.18,30.08,11,2,0,0.00
2013-8-12,69.4,64.9,60.8,61.8,50.2,39.6,92,61,35,30.12,29.94,11,3,0,0.00
2013-8-13,65.9,58.8,52.5,60.0,18.0,-14.2,98,30,4,30.11,29.91,17,8,0,0.04
2013-8-14,71.8,57.9,47.4,42.4,17.1,-17.2,81,29,3,30.21,30.10,12,5,0,0.00
2013-8-15,74.7,61.4,45.9,54.1,20.1,-18.4,100,36,3,30.23,30.12,11,3,0,0.00
2013-8-16,81.9,67.2,51.1,57.3,16.4,-21.4,100,26,2,30.27,30.16,7,2,0,0.00
2013-8-17,80.9,65.6,51.1,58.8,23.0,-21.2,100,42,2,30.33,30.23,10,2,0,0.00
2013-8-18,84.0,67.8,52.0,67.6,25.7,-18.1,100,43,2,30.29,30.15,7,1,0,0.00
2013-8-19,83.3,70.0,55.8,58.4,21.7,-19.2,100,34,2,30.18,30.08,12,3,0,0.00
2013-8-20,82.6,64.8,56.8,59.6,42.2,9.8,100,52,8,30.19,30.11,8,1,0,0.00
2013-8-27,83.2,77.1,70.8,71.8,50.0,27.7,89,44,14,30.01,29.90,13,4,0,0.83
2013-8-28,81.5,74.7,67.8,72.4,55.6,30.0,100,61,16,30.07,29.88,16,4,0,0.00
2013-8-29,89.1,74.5,63.4,67.8,39.8,-15.0,100,51,2,30.14,30.05,5,2,0,0.00
2013-8-30,86.9,75.2,65.6,69.3,44.3,9.4,100,47,6,30.07,29.83,18,5,0,0.00
2013-8-31,80.0,71.3,65.5,70.2,46.7,14.3,91,50,9,29.92,29.85,8,3,0,0.00
2013-9-1,79.1,69.4,62.5,69.4,51.9,27.2,100,62,16,29.92,29.80,10,2,0,0.00
2013-9-2,72.5,65.1,55.5,67.9,38.7,15.4,99,47,13,29.97,29.81,18,7,0,0.00
2013-9-3,73.0,62.4,54.8,42.2,20.3,-14.0,60,26,3,30.07,29.95,16,6,0,0.00
2013-9-4,80.7,67.0,55.3,50.6,27.8,-10.6,81,34,3,30.13,30.03,14,5,0,0.00
2013-9-5,70.1,59.2,49.9,50.5,20.2,-19.0,79,34,3,30.33,30.13,11,4,0,0.00
2013-9-6,76.3,59.5,45.7,50.2,19.1,-17.5,100,39,3,30.34,30.12,9,3,0,0.00
2013-9-7,78.7,69.6,58.4,36.8,22.5,6.9,44,19,7,30.12,30.00,11,6,0,0.00
2013-9-8,67.9,66.0,65.0,58.1,50.8,46.4,72,58,50,30.06,29.98,11,4,0,0.00
2013-9-9,77.6,65.4,53.4,60.8,43.8,20.7,77,49,19,30.12,29.93,13,4,0,0.00
2013-9-10,94.0,80.2,69.3,60.0,31.8,-10.0,69,25,2,30.06,29.91,15,7,0,0.00
2013-9-11,90.4,78.3,69.9,49.3,32.9,2.7,45,23,4,30.08,29.96,21,6,0,0.00
2013-9-12,79.9,66.1,55.2,61.8,34.1,-19.7,87,43,2,30.02,29.91,15,6,0,0.00
2013-9-13,56.9,51.5,40.5,43.0,16.8,-19.4,100,31,5,30.21,30.01,17,6,0,0.00
2013-9-14,68.7,52.0,35.3,48.9,13.7,-18.4,100,46,4,30.24,30.11,14,2,0,0.00
2013-9-15,61.5,54.5,47.6,53.5,31.4,-2.1,100,50,10,30.17,30.10,9,2,0,0.00
2013-9-16,62.0,53.6,43.1,54.2,24.6,-12.9,100,45,5,30.45,30.19,13,5,0,0.00
2013-9-17,67.6,50.1,34.4,47.3,24.3,-13.1,100,53,4,30.47,30.27,12,3,0,0.00
2013-9-18,76.6,59.8,44.1,51.5,26.5,-13.1,100,46,3,30.28,30.07,14,4,0,0.00
2013-9-19,81.1,68.3,58.7,58.8,42.9,14.5,99,47,11,30.09,29.94,13,5,0,0.00
2013-9-20,71.7,69.3,67.7,63.0,56.2,50.5,80,64,52,29.95,29.89,19,6,0,0.00
2013-9-23,58.9,51.9,42.5,45.4,15.7,-17.7,100,39,4,30.24,30.17,10,2,0,0.00
2013-9-24,67.9,52.5,37.5,49.3,22.7,-18.7,100,55,3,30.22,30.04,10,2,0,0.00
2013-9-25,72.1,54.7,39.5,59.9,26.1,-18.7,100,58,3,30.08,29.99,10,1,0,0.00
2013-9-26,75.6,57.9,40.9,53.8,24.0,-23.8,100,51,2,30.20,30.06,9,1,0,0.00
2013-9-27,75.6,59.4,43.2,58.7,26.6,-21.0,100,51,2,30.29,30.19,11,2,0,0.00
2013-9-28,75.9,62.6,47.9,60.1,30.0,-19.9,100,52,2,30.25,30.05,17,4,0,0.00
2013-9-29,64.0,60.3,56.7,57.0,43.9,27.1,97,60,25,30.07,29.98,10,3,0,0.00
2013-9-30,71.4,61.8,53.8,55.9,21.5,-10.5,100,34,4,30.07,29.96,14,3,0,0.00
2013-10-1,75.7,62.0,50.8,56.2,41.7,20.1,100,54,14,30.05,29.94,17,6,0,0.00
2013-10-2,76.7,64.7,51.6,61.6,25.4,-17.6,100,38,3,30.13,29.97,12,3,0,0.00
2013-10-3,54.8,53.7,52.3,32.6,30.2,28.4,44,41,37,30.13,30.10,5,1,0,0.00
2013-10-4,80.1,70.3,64.1,67.1,46.7,15.8,100,50,12,30.08,29.98,11,3,0,0.00
2013-10-5,66.4,64.7,64.0,66.4,64.7,64.0,100,100,100,30.09,30.05,4,0,0,0.28
2013-10-6,70.5,64.1,52.9,68.3,51.5,39.7,100,67,35,29.90,29.71,20,5,0,1.93
2013-10-7,59.3,50.6,44.1,52.1,32.2,5.5,99,53,13,30.15,29.76,19,6,0,0.00
2013-10-8,63.9,46.4,40.3,46.3,35.7,-5.9,100,78,6,30.32,30.15,8,1,0,0.00
2013-10-9,69.7,56.3,43.0,47.4,20.6,-16.7,100,46,3,30.37,30.25,11,2,0,0.00
2013-10-10,70.5,56.3,43.2,58.9,22.1,-17.9,100,48,3,30.29,30.17,9,2,0,0.00
2013-10-11,72.3,54.7,38.0,56.0,21.0,-18.3,100,48,3,30.22,30.10,9,1,0,0.00
2013-10-12,76.1,66.4,51.3,49.3,24.2,-13.3,88,29,3,30.14,30.07,15,5,0,0.00
2013-10-13,65.0,57.9,45.3,56.2,16.6,-19.8,89,31,3,30.41,30.12,14,4,0,0.00
2013-10-14,63.6,47.4,40.9,45.3,25.3,-23.9,100,62,3,30.47,30.37,7,1,0,0.00
2013-10-15,63.9,54.1,38.4,56.5,40.1,23.5,100,66,22,30.27,29.88,15,5,0,0.00
2013-10-16,61.0,53.6,49.4,55.2,33.3,12.7,83,50,19,29.94,29.86,18,7,0,0.00
2013-10-17,52.3,49.5,48.4,47.1,41.9,32.2,94,77,47,29.94,29.86,9,2,0,0.00
2013-10-18,61.9,52.1,42.3,43.0,11.8,-21.4,100,32,3,29.95,29.89,18,6,0,0.00
2013-10-19,50.8,44.0,39.9,40.6,26.0,1.7,92,53,17,29.93,29.79,16,6,0,0.00
2013-10-20,55.2,46.8,38.3,38.6,16.1,-18.1,98,40,5,29.94,29.88,15,5,0,0.00
2013-10-21,54.8,49.6,41.9,32.4,20.5,6.3,53,33,14,29.91,29.86,21,8,0,0.00
2013-10-22,48.3,40.2,33.2,17.9,1.1,-25.8,42,22,4,29.94,29.90,17,5,0,0.00
2013-10-23,44.8,37.7,32.3,34.0,11.0,-24.5,99,46,5,29.97,29.89,18,4,0,0.00
2013-10-24,46.9,36.3,29.4,34.4,12.7,-26.4,100,52,4,30.21,29.96,14,4,0,0.00
2013-10-25,44.5,37.0,30.2,32.0,10.8,-20.1,100,47,6,30.36,30.11,15,4,0,0.00
2013-10-26,48.3,42.1,36.2,37.2,4.4,-26.6,90,29,4,30.10,29.79,27,10,0,0.00
2013-10-27,50.3,40.9,31.7,30.2,5.4,-22.5,89,33,5,30.10,29.99,15,5,0,0.00
2013-10-28,48.3,40.5,34.8,25.7,11.3,-5.9,68,32,11,30.46,30.09,11,3,0,0.00
2013-10-29,46.6,40.2,36.6,16.7,6.8,-14.7,43,27,7,30.49,30.29,8,2,0,0.00
2013-10-30,64.6,48.6,34.7,45.9,18.2,-12.6,100,46,5,30.29,29.98,12,3,0,0.00
2013-10-31,61.2,57.8,51.5,60.5,53.4,46.6,100,86,66,29.99,29.20,23,8,0,0.08
2013-11-1,60.3,48.4,43.7,51.5,26.2,7.6,82,44,19,29.74,29.15,31,11,0,0.00
2013-11-2,44.3,40.8,32.9,44.3,33.9,23.4,100,78,51,30.16,29.71,15,5,0,0.00
2013-11-3,42.6,35.5,28.8,39.0,19.2,-7.0,100,61,12,30.50,30.16,9,3,0,0.00
2013-11-4,47.5,41.2,31.0,21.3,0.4,-23.2,65,23,5,30.52,30.32,20,10,0,0.00
2013-11-5,52.3,48.0,42.0,34.0,23.9,15.4,53,39,28,30.36,30.18,12,6,0,0.00
2013-11-6,55.4,51.2,40.2,49.1,30.4,3.9,88,50,13,30.19,29.83,25,10,0,0.00
2013-11-7,41.6,37.0,31.7,32.7,13.5,-20.2,88,42,7,30.16,30.02,14,5,0,0.00
2013-11-8,33.0,32.2,31.5,17.7,16.0,14.3,56,51,48,30.17,30.15,7,2,0,0.00
2013-11-9,53.2,46.6,36.9,13.6,3.4,-17.0,34,17,6,30.13,29.84,23,11,0,0.00
2013-11-10,46.7,40.8,35.0,17.0,2.9,-22.9,41,22,5,30.31,29.92,23,7,0,0.00
2013-11-11,41.8,34.5,25.9,32.2,14.7,-4.6,90,47,21,30.36,30.05,17,8,0,0.00
2013-11-12,31.8,26.6,21.7,11.7,-8.8,-28.9,60,24,7,30.59,30.36,23,9,0,0.00
2013-11-13,22.9,20.4,17.6,12.0,8.9,6.6,75,61,54,30.60,30.52,11,4,0,0.00
2013-11-14,51.3,47.4,42.1,-13.8,-16.6,-20.5,6,6,6,30.04,29.96,20,11,0,0.00
2013-11-15,51.5,41.8,36.6,-3.8,-15.1,-25.6,17,8,5,30.07,30.00,15,7,0,0.00
2013-11-16,56.0,47.3,36.3,40.7,29.2,10.2,76,50,30,30.13,29.83,24,10,0,0.00
2013-11-17,61.5,56.7,44.1,55.0,42.0,15.6,90,59,25,29.85,29.24,41,14,0,0.00
2013-11-18,45.5,38.0,33.1,24.4,5.2,-9.4,44,26,15,30.16,29.49,34,11,0,0.00
2013-11-19,33.5,32.4,30.3,4.8,-2.4,-9.5,30,22,16,30.32,30.16,19,8,0,0.00
2013-11-20,43.9,35.4,25.2,26.2,6.1,-23.8,100,41,5,30.49,30.27,20,7,0,0.00
2013-11-21,46.9,42.1,39.4,40.5,9.9,-14.5,90,30,9,30.32,30.21,18,7,0,0.00
2013-11-22,43.3,35.7,25.9,43.3,27.5,6.8,100,76,32,30.41,30.16,21,7,0,0.00
2013-11-23,27.4,22.1,15.5,18.8,-3.8,-33.7,75,37,7,30.57,30.30,25,11,0,0.00
2013-11-24,16.0,14.7,13.4,0.9,-2.1,-9.4,54,47,31,30.59,30.56,14,8,0,0.00
2013-11-25,30.5,23.2,18.6,-12.2,-22.7,-34.9,21,12,6,30.38,30.09,21,11,0,0.00
2013-11-26,32.4,29.7,26.5,23.4,16.3,11.6,81,58,43,30.12,29.97,17,5,0,0.00
2013-11-27,26.4,21.8,16.6,20.3,-2.3,-29.4,80,38,8,30.08,29.96,25,10,0,0.00
2013-11-28,31.0,21.3,14.0,13.8,4.0,-20.9,79,50,12,30.41,30.27,13,4,0,0.00
2013-11-29,35.3,23.1,14.3,17.7,3.0,-25.7,100,56,6,30.69,30.54,5,1,0,0.00
2013-11-30,43.8,35.2,27.2,12.0,-0.6,-22.5,47,25,6,30.52,30.11,18,8,0,0.00
2013-12-1,39.7,35.7,30.7,30.1,15.6,-2.8,91,49,16,30.12,30.03,13,5,0,0.00
2013-12-2,38.8,31.6,27.1,26.4,7.0,-28.4,84,45,5,30.04,29.92,7,2,0,0.00
2013-12-3,36.8,32.1,25.7,32.9,21.5,8.2,90,66,37,29.97,29.90,15,6,0,0.00
2013-12-4,50.8,42.4,36.6,41.9,34.9,28.1,100,78,46,29.93,29.75,15,6,0,0.00
2013-12-5,58.4,37.3,28.2,40.5,6.2,-17.5,54,28,9,30.18,29.66,23,9,0,0.00
2013-12-6,28.3,27.0,24.9,2.7,-0.1,-4.5,34,30,26,30.22,30.16,13,5,0,0.00
2013-12-7,22.9,18.2,14.6,-1.7,-14.8,-30.6,41,23,9,30.67,30.31,17,5,0,0.00
2013-12-8,12.3,10.9,10.0,6.3,2.8,-1.5,82,70,54,30.66,30.58,4,1,0,0.00
2013-12-9,28.1,23.8,17.3,22.0,7.6,-20.5,83,52,16,30.12,29.91,19,10,0,0.00
2013-12-10,20.1,16.1,9.7,7.8,-9.0,-36.8,61,36,7,30.20,29.96,23,8,0,0.00
2013-12-11,19.5,17.7,16.3,7.4,2.9,-2.9,62,52,39,30.33,30.20,13,7,0,0.00
2013-12-12,10.1,7.4,4.4,1.6,-1.3,-3.6,71,67,64,30.51,30.44,8,5,0,0.00
2013-12-13,26.7,22.0,18.7,10.4,0.8,-12.3,63,41,18,30.35,30.19,10,4,0,0.00
2013-12-14,19.9,17.9,15.8,14.5,7.4,-7.3,83,64,32,30.35,29.90,16,7,0,0.00
2013-12-15,23.7,17.2,10.1,15.2,4.4,-21.6,91,60,19,30.10,29.88,14,5,0,0.00
2013-12-16,20.0,11.7,6.8,6.5,-4.0,-34.6,72,51,7,30.20,30.07,10,4,0,0.00
2013-12-17,26.1,16.5,12.6,20.4,10.1,6.0,92,76,50,30.07,29.91,15,3,0,0.00
2013-12-18,26.3,24.0,22.6,21.5,17.9,-5.6,88,79,24,30.12,30.02,18,5,0,0.00
2013-12-19,35.8,32.3,27.7,29.6,14.8,-6.8,90,50,21,30.03,29.91,12,4,0,0.00
2013-12-20,36.2,32.3,31.5,36.2,32.3,30.2,100,100,92,29.96,29.81,9,2,0,0.04
2013-12-21,32.2,31.5,30.9,32.2,31.0,27.5,100,98,86,29.92,29.78,7,0,0,0.75
2013-12-22,33.8,30.7,26.8,33.8,30.1,26.4,100,98,91,30.01,29.65,0,0,0,0.00
2013-12-23,26.9,24.0,17.0,26.9,16.9,5.9,100,75,50,30.35,30.01,0,0,0,0.00
2013-12-24,17.1,10.5,3.5,9.0,-2.4,-19.1,87,58,24,30.62,30.34,0,0,0,0.00
2013-12-25,24.1,17.0,5.5,17.0,7.5,-1.9,80,66,50,30.58,30.13,0,0,0,0.00
2013-12-26,26.1,23.1,20.9,20.2,10.6,-13.7,83,62,18,30.32,30.06,0,0,0,0.00
2013-12-27,38.2,30.5,23.9,26.0,18.7,11.1,98,64,35,30.35,30.05,20,3,0,0.04
2013-12-28,48.4,40.1,33.2,19.0,8.2,-16.6,54,29,6,30.14,29.92,20,8,0,0.00
2013-12-29,41.0,32.3,16.6,26.5,7.1,-5.7,92,41,14,30.08,29.76,17,8,0,0.00
2013-12-30,19.9,15.4,12.5,-1.5,-15.3,-34.9,44,25,8,30.34,30.07,15,4,0,0.00
2013-12-31,17.7,13.6,10.5,5.7,-3.0,-33.4,70,50,10,30.38,30.09,17,6,0,0.00
2014-1-1,13.2,10.4,7.9,5.6,-9.7,-37.2,71,43,9,30.47,30.31,11,5,0,0.00
2014-1-2,12.9,9.1,0.0,3.5,-6.2,-29.6,66,50,18,30.38,30.16,22,10,0,0.00